FW1702 Weather Reports


time (UTC)temp
F
wind
direction
speed
knots
gust
knots
rain 1hr
in
rain 24hr
in
rain mn
in
humidity
%
barometer
mb
20210127140105 73 221 0.0 0.9 0.00 0.00 0.00 89 1019.7
20210127134532 71 220 0.0 0.0 0.00 0.00 0.00 92 1019.5
20210127133042 70 220 0.0 2.6 0.00 0.00 0.00 92 1019.5
20210127131520 69 220 0.0 1.7 0.00 0.00 0.00 93 1019.4
20210127130023 67 219 0.0 0.9 0.00 0.00 0.00 93 1019.2
20210127124707 66 219 0.0 0.9 0.00 0.00 0.00 92 1019.1
20210127123133 65 219 0.0 0.9 0.00 0.00 0.00 92 1019.0
20210127121701 65 197 0.0 0.0 0.00 0.00 0.00 91 1019.0
20210127120116 65 196 0.0 0.0 0.00 0.00 0.00 91 1018.9
20210127114644 65 196 0.0 0.0 0.00 0.00 0.00 91 1018.8
20210127113135 65 196 0.0 0.0 0.00 0.00 0.00 91 1018.7
20210127111622 65 196 0.0 0.0 0.00 0.00 0.00 91 1018.6
20210127110203 66 196 0.0 0.0 0.00 0.00 0.00 91 1018.6
20210127104623 66 196 0.0 0.9 0.00 0.00 0.00 90 1018.5
20210127103106 66 196 0.0 0.0 0.00 0.00 0.00 90 1018.5
20210127101732 66 196 0.0 0.9 0.00 0.00 0.00 90 1018.3
20210127100227 66 196 0.0 0.0 0.00 0.00 0.00 90 1018.2
20210127094603 67 196 0.0 0.0 0.00 0.00 0.00 90 1018.1
20210127093115 67 196 0.0 0.9 0.00 0.00 0.00 90 1018.1
20210127091624 67 196 0.0 0.0 0.00 0.00 0.00 90 1018.0
20210127090106 68 196 0.0 0.0 0.00 0.00 0.00 89 1018.1
20210127084623 68 196 0.0 0.0 0.00 0.00 0.00 89 1018.1
20210127083157 68 196 0.0 0.0 0.00 0.00 0.00 89 1018.0
20210127081603 69 196 0.0 0.0 0.00 0.00 0.00 89 1017.9
20210127080133 69 196 0.0 0.9 0.00 0.00 0.00 90 1018.1
20210127074601 70 196 0.0 0.9 0.00 0.00 0.00 90 1018.0
20210127073051 70 194 0.0 1.7 0.00 0.00 0.00 90 1018.1
20210127071602 70 194 0.0 2.6 0.00 0.00 0.00 90 1018.2
20210127070046 70 195 0.0 3.5 0.00 0.00 0.00 90 1018.3
20210127064557 70 190 0.0 2.6 0.00 0.00 0.00 90 1018.3
20210127063056 70 183 0.0 2.6 0.00 0.00 0.00 90 1018.3
20210127061531 70 182 0.0 4.3 0.00 0.00 0.00 90 1018.4
20210127060029 70 182 0.0 2.6 0.00 0.00 0.00 90 1018.4
20210127054541 69 182 0.0 2.6 0.00 0.00 0.00 90 1018.6
20210127053037 69 182 0.0 1.7 0.00 0.00 0.00 89 1018.6
20210127051535 70 182 0.0 0.9 0.00 0.00 0.00 89 1018.7
20210127050055 70 182 0.0 2.6 0.00 0.00 0.00 89 1018.6
20210127044537 70 196 0.0 1.7 0.00 0.00 0.00 89 1018.8
20210127043050 71 196 0.0 2.6 0.00 0.00 0.00 89 1018.8
20210127041526 71 194 0.0 1.7 0.00 0.00 0.00 89 1018.9
20210127040039 71 196 0.0 3.5 0.00 0.00 0.00 89 1018.9
20210127034519 72 158 0.0 1.7 0.00 0.00 0.00 89 1018.9
20210127033028 72 177 0.0 2.6 0.00 0.00 0.00 88 1018.8
20210127031530 72 171 0.0 3.5 0.00 0.00 0.00 88 1018.9
20210127030027 72 167 0.0 2.6 0.00 0.00 0.00 87 1018.8
20210127024522 72 168 0.0 2.6 0.00 0.00 0.00 87 1018.7
20210127023031 72 161 0.9 4.3 0.00 0.00 0.00 87 1018.7
20210127021523 72 130 0.9 4.3 0.00 0.00 0.00 87 1018.7
20210127020029 73 167 0.9 3.5 0.00 0.00 0.00 87 1018.7
20210127014548 73 200 1.7 5.2 0.00 0.00 0.00 87 1018.5
20210127013022 73 198 1.7 6.1 0.00 0.00 0.00 87 1018.4
20210127011546 73 165 1.7 5.2 0.00 0.00 0.00 86 1018.3
20210127010034 73 194 1.7 4.3 0.00 0.00 0.00 86 1018.4
20210127004528 73 157 0.9 7.0 0.00 0.00 0.00 86 1018.2
20210127003025 73 131 0.0 5.2 0.00 0.00 0.00 85 1018.2
20210127001514 73 209 0.0 5.2 0.00 0.00 0.00 85 1018.0
20210127000020 74 155 0.0 4.3 0.00 0.00 0.00 84 1018.0
20210126234523 74 146 0.0 6.1 0.00 0.00 0.00 83 1017.9
20210126233021 74 163 0.9 4.3 0.00 0.00 0.00 83 1018.1
20210126231511 74 192 0.9 6.1 0.00 0.00 0.00 82 1018.0
20210126230022 75 184 0.9 7.0 0.00 0.00 0.00 82 1017.8
20210126223150 76 151 1.7 8.7 0.00 0.00 0.00 81 1017.7
20210126221639 76 141 3.5 8.7 0.00 0.00 0.00 81 1017.2
20210126220154 77 147 3.5 10.4 0.00 0.00 0.00 80 1017.2
20210126214633 77 201 3.5 8.7 0.00 0.00 0.00 79 1017.2
20210126213137 77 152 4.3 12.2 0.00 0.00 0.00 79 1017.2
20210126211755 78 162 4.3 10.4 0.00 0.00 0.00 78 1017.4
20210126210228 78 142 3.5 13.0 0.00 0.00 0.00 78 1017.3
20210126204731 78 143 4.3 13.0 0.00 0.00 0.00 78 1017.3
20210126203120 78 133 7.0 12.2 0.00 0.00 0.00 77 1017.3
20210126201729 78 130 5.2 11.3 0.00 0.00 0.00 77 1017.6
20210126200151 79 143 5.2 8.7 0.00 0.00 0.00 76 1017.6
20210126194605 79 182 3.5 11.3 0.00 0.00 0.00 76 1017.3
20210126193222 79 155 3.5 11.3 0.00 0.00 0.00 76 1017.2
20210126191637 78 194 5.2 12.2 0.00 0.00 0.00 76 1017.6
20210126190254 79 115 5.2 11.3 0.00 0.00 0.00 74 1017.5
20210126184710 79 126 5.2 13.9 0.00 0.00 0.00 73 1017.6
20210126183128 79 126 5.2 13.9 0.00 0.00 0.00 74 1017.8
20210126181642 79 153 5.2 13.0 0.00 0.00 0.00 74 1018.2
20210126180116 78 146 7.0 12.2 0.00 0.00 0.00 75 1018.4
20210126174646 78 123 7.8 13.0 0.00 0.00 0.00 74 1018.5
20210126173218 79 107 6.1 10.4 0.00 0.00 0.00 73 1018.8
20210126171741 79 177 5.2 13.9 0.00 0.00 0.00 74 1019.0
20210126170147 78 124 5.2 11.3 0.00 0.00 0.00 75 1019.1
20210126164652 78 121 4.3 11.3 0.00 0.00 0.00 75 1019.3
20210126163134 78 101 3.5 11.3 0.00 0.00 0.00 74 1019.4
20210126161616 78 165 4.3 9.6 0.00 0.00 0.00 75 1019.3
20210126160117 78 169 3.5 8.7 0.00 0.00 0.00 75 1019.5
20210126154701 78 187 4.3 11.3 0.00 0.00 0.00 76 1019.4
20210126153050 78 135 4.3 8.7 0.00 0.00 0.00 75 1019.6
20210126151648 77 134 3.5 9.6 0.00 0.00 0.00 77 1019.7
20210126150202 77 139 3.5 10.4 0.00 0.00 0.00 76 1019.6
20210126144603 76 204 0.9 6.1 0.00 0.00 0.00 78 1019.7
20210126143123 76 197 2.6 8.7 0.00 0.00 0.00 79 1019.6
20210126141627 75 192 2.6 8.7 0.00 0.00 0.00 82 1019.1